Location: Unspecified
(49.2170°N, 0.0000°E)
Time: 13:47:48
(UTC+00:00)

Vanguard 3 - Pass Details

Date: 23 January 2021
Orbit: 508 x 3261 km, 33.3° (Epoch: 28 February)

Event Time Altitude Azimuth Distance (km) Brightness Sun altitude
Rises 05:21:12 0° 240° (WSW) 3,965 - -22.7°
Reaches altitude 10° 05:23:47 10° 230° (SW) 3,309 - -22.3°
Exits shadow 05:25:01 15° 224° (SW) 3,054 9.7 -22.1°
Maximum altitude 05:31:25 34° 169° (S) 2,720 9.9 -21.1°
Drops below altitude 10° 05:43:34 10° 113° (ESE) 5,313 12.4 -19.1°
Sets 05:49:04 0° 106° (ESE) 6,704 13.5 -18.2°
